Regional Weather Roundup
Issued by NWS

Home | Current Version | Previous Version | Text Only | Print | Product List | Glossary On
Versions: 1 2 3 4 5 6 7 8 9 10 11 12 13 14 15 16 17 18 19 20 21 22 23 24 25 26 27 28 29 30 31 32 33 34 35 36 37 38 39 40 41 42 43 44 45 46 47 48 49 50
000
ASMX46 KSGX 241110
RWRMX

MEXICAN WEATHER ROUNDUP
NATIONAL WEATHER SERVICE SAN DIEGO CA
400 AM PDT THU JUL 24 2014

BAJA CALIFORNIA

CITY           SKY/WX    TMP DP  RH WIND       PRES   REMARKS
ENSENADA NW      N/A     67  32  27 NE2       29.82F
TIJUANA        CLOUDY    66  63  88 CALM      29.90S FOG

NORTHWESTERN MEXICO

CITY           SKY/WX    TMP DP  RH WIND       PRES   REMARKS
CHIHUAHUA      MOCLDY    68  52  56 CALM      30.22
OBREGON        CLEAR     86  66  51 CALM      29.74

NORTHEASTERN MEXICO

CITY           SKY/WX    TMP DP  RH WIND       PRES   REMARKS
MONTERREY      CLEAR     75  72  88 E6        29.99F
NUEVO LAREDO   CLEAR     82  72  69 E6        29.98
REYNOSA        CLEAR     75  72  88 E6        29.96
SALTILLO       CLEAR     66  59  77 S6        30.23
TORREON        CLEAR     70  57  64 CALM      30.13
VICTORIA       CLEAR     75  70  83 S7        29.98

WESTERN MEXICO

CITY           SKY/WX    TMP DP  RH WIND       PRES   REMARKS
AGUASCALIENTES CLEAR     54  46  76 NE9       30.30
COLIMA         PTCLDY    72  64  78 CALM      30.00
DURANGO        CLEAR     59  52  77 NW5       30.29R
GUADALAJARA    PTCLDY    61  55  82 S3        30.18
MAZATLAN       CLOUDY    73  68  83 NE8       29.86S
PTO. VALLARTA  PTCLDY    73  70  88 N7        29.88S
ZACATECAS      PTCLDY    57  39  51 SE9       30.33

CENTRAL MEXICO

CITY           SKY/WX    TMP DP  RH WIND       PRES   REMARKS
LEON           CLEAR     63  50  63 N8        30.30
MEXICO CITY    PTCLDY    54  48  82 N7        30.34F
MORELIA        PTCLDY    54  54 100 CALM      30.26
PUEBLA         PTCLDY    48  46  93 NW7       30.35
QUERETARO      PTCLDY    55  52  88 CALM      30.33F
S. LUIS POTOSI PTCLDY    57  54  88 CALM      30.30F
TAMPICO        CLEAR     79  75  89 CALM      29.97S
TOLUCA         MOCLDY    46  41  81 N5        30.40F
VERACRUZ       LGT RAIN  70  66  88 N3        30.03

SOUTHERN MEXICO

CITY           SKY/WX    TMP DP  RH WIND       PRES   REMARKS
ACAPULCO       CLOUDY    75  72  88 N5        29.85S
MINATITLAN     MOCLDY    75  66  73 CALM      29.92
OAXACA         PTCLDY    61  54  77 N13       30.22
TAPACHULA      MOCLDY    75  72  88 CALM      29.82S
TUX. GUTIERREZ MOCLDY    70  68  94 S2        29.97
VILLAHERMOSA   PTCLDY    77  73  88 E8        29.94F

YUCATAN PENINSULA

CITY           SKY/WX    TMP DP  RH WIND       PRES   REMARKS
CAMPECHE       CLEAR     75  72  88 CALM      29.95
CANCUN         PTCLDY    75  75 100 CALM      29.99R
CHETUMAL       MOCLDY    79  73  83 N7        29.95
C. DEL CARMEN    N/A     81  73  78 SE12      29.93
COZUMEL        CLEAR     72  72 100 CALM      29.98S
MERIDA         MOCLDY    73  70  88 CALM      29.99S

$$



USA.gov is the U.S. government's official web portal to all federal, state and local government web resources and services.